DW2080 San Leon TX US current weather conditions

sailwx.info

Wind from 005 at 0 knots gusting 9

Air temperature 13.3° C
Dewpoint 9.6° C

Last reported at 2019-Dec-07 14:00 UTC.
Time now 2019-Dec-07 14:21 UTC

Location: N 29°30' W 094°57'.
View on Google Maps.

See reports from other nearby stations

  
Tides and Currents Weather Stations Pressure Air Temp Water Temp Dewpoint Dewpoint Depression Visibility Wind Speed Wind Dir Waves Ship Positions
date/time (UTC)wind fromknots sea level pressurealtimeterstation pressurevisibilityair tempwater tempwave heightnotes
2019-Dec-07 14:00 005 0 gusting 9 13.3
2019-Dec-07 13:45 024 5 gusting 8 13.3
2019-Dec-07 13:32 005 13.3
2019-Dec-07 13:16 011 2 gusting 8 13.3
2019-Dec-07 13:03 012 3 gusting 8 13.3
2019-Dec-07 12:46 360 5 gusting 9 13.3
2019-Dec-07 12:31 355 4 gusting 8 13.3
2019-Dec-07 12:17 009 1 gusting 7 13.3
2019-Dec-07 12:01 005 0 gusting 7 13.3
2019-Dec-07 11:46 351 1 gusting 9 13.9
2019-Dec-07 11:31 005 3 gusting 9 13.9
2019-Dec-07 11:15 355 3 gusting 10 13.9
2019-Dec-07 11:01 022 4 gusting 10 13.9
2019-Dec-07 10:46 011 0 gusting 8 13.9
2019-Dec-07 10:31 013 3 gusting 13 14.4
2019-Dec-07 10:17 017 3 gusting 11 14.4
2019-Dec-07 10:00 012 1 gusting 10 14.4
2019-Dec-07 09:45 360 6 gusting 10 14.4
2019-Dec-07 09:30 005 6 gusting 13 14.4
2019-Dec-07 09:15 360 8 gusting 13 15.0
2019-Dec-07 09:00 005 8 gusting 13 15.0
2019-Dec-07 08:45 355 7 gusting 13 15.0
2019-Dec-07 08:30 360 6 gusting 13 15.0
2019-Dec-07 08:15 013 6 gusting 13 15.6
2019-Dec-07 08:00 005 6 gusting 14 15.6
2019-Dec-07 07:45 355 9 gusting 13 15.6
2019-Dec-07 07:16 005 6 gusting 14 16.1
2019-Dec-07 07:02 346 10 gusting 16 16.7
2019-Dec-07 06:46 360 8 gusting 13 16.1
2019-Dec-07 06:31 360 7 gusting 13 16.7
2019-Dec-07 06:16 355 8 gusting 13 16.7
2019-Dec-07 06:01 355 6 gusting 13 16.7
2019-Dec-07 05:46 355 8 gusting 14 17.2
2019-Dec-07 05:31 350 7 gusting 13 17.2
2019-Dec-07 05:16 345 9 gusting 14 16.7
2019-Dec-07 05:01 345 10 gusting 14 16.7
2019-Dec-07 04:46 355 10 gusting 15 17.2
2019-Dec-07 04:31 344 9 gusting 14 17.2
2019-Dec-07 04:16 355 8 gusting 15 17.2
2019-Dec-07 04:01 342 10 gusting 14 17.2
2019-Dec-07 03:47 348 8 gusting 13 17.2
2019-Dec-07 03:31 350 6 gusting 13 17.2
2019-Dec-07 03:16 341 7 gusting 13 17.2
2019-Dec-07 03:01 350 7 gusting 13 17.2
2019-Dec-07 02:46 339 9 gusting 13 17.2
2019-Dec-07 02:30 340 8 gusting 13 17.2
2019-Dec-07 02:15 351 8 gusting 12 17.2
2019-Dec-07 02:00 355 7 gusting 12 17.2
2019-Dec-07 01:45 005 8 gusting 13 17.2
2019-Dec-07 01:31 355 7 gusting 12 17.8
2019-Dec-07 01:15 350 6 gusting 11 17.8
2019-Dec-07 01:00 355 6 gusting 12 17.8
2019-Dec-07 00:45 005 6 gusting 12 18.3
2019-Dec-07 00:30 351 7 gusting 11 18.3
2019-Dec-07 00:15 360 6 gusting 10 18.3
2019-Dec-07 00:00 005 5 gusting 9 18.9
2019-Dec-06 23:45 355 6 gusting 11 18.9
2019-Dec-06 23:30 355 9 gusting 13 18.9
2019-Dec-06 23:17 344 7 gusting 11 19.4
2019-Dec-06 23:02 348 6 gusting 10 19.4
2019-Dec-06 22:47 348 8 gusting 12 19.4
2019-Dec-06 22:31 360 6 gusting 12 19.4
2019-Dec-06 22:18 355 6 gusting 10 20.0
2019-Dec-06 21:46 333 6 gusting 9 20.6
2019-Dec-06 21:31 330 6 gusting 11 21.1
2019-Dec-06 21:17 316 7 gusting 12 21.1
2019-Dec-06 21:02 329 8 gusting 13 21.1
2019-Dec-06 20:46 315 9 gusting 12 21.1
2019-Dec-06 20:33 318 9 gusting 12 21.1
2019-Dec-06 20:17 335 9 gusting 13 21.7
2019-Dec-06 20:02 304 11 gusting 14 21.7
2019-Dec-06 18:45 310 8 gusting 12 22.2
2019-Dec-06 18:31 309 6 gusting 11 22.2
2019-Dec-06 18:17 321 7 gusting 10 22.2
2019-Dec-06 18:01 310 6 gusting 9 22.2
2019-Dec-06 17:46 323 5 gusting 9 22.2
2019-Dec-06 17:31 312 7 gusting 12 21.7
2019-Dec-06 17:17 312 5 gusting 9 21.7
2019-Dec-06 17:01 309 6 gusting 10 21.1
2019-Dec-06 16:46 308 6 gusting 11 21.1
2019-Dec-06 16:31 299 8 gusting 12 20.6
2019-Dec-06 16:15 315 6 gusting 10 20.0
2019-Dec-06 16:01 296 8 gusting 11 19.4
2019-Dec-06 15:45 306 7 gusting 13 19.4
2019-Dec-06 15:31 292 5 gusting 11 19.4
2019-Dec-06 15:16 232 19.4
2019-Dec-06 15:00 281 6 gusting 14 19.4
2019-Dec-06 14:45 292 3 gusting 8 19.4
2019-Dec-06 14:31 293 5 gusting 9 19.4
2019-Dec-06 14:15 300 3 gusting 10 18.9
2019-Dec-06 14:00 269 2 gusting 9 18.9
2019-Dec-06 13:45 288 18.3
2019-Dec-06 13:30 277 18.3
2019-Dec-06 13:15 309 18.3
2019-Dec-06 13:00 277 17.8
2019-Dec-06 12:45 259 17.8
2019-Dec-06 12:30 227 17.2
2019-Dec-06 12:15 227 17.2
2019-Dec-06 12:00 225 17.2
2019-Dec-06 11:45 230 17.2
2019-Dec-06 11:30 230 17.2
2019-Dec-06 11:15 230 17.2
2019-Dec-06 11:00 230 17.8
2019-Dec-06 10:46 230 17.8
2019-Dec-06 10:33 230 17.8
2019-Dec-06 10:16 225 17.8
2019-Dec-06 10:01 206 18.3
2019-Dec-06 09:47 228 18.3
2019-Dec-06 09:31 225 18.3
2019-Dec-06 09:16 234 18.3
2019-Dec-06 09:01 235 18.3
2019-Dec-06 08:46 215 18.3
2019-Dec-06 08:32 210 18.3
2019-Dec-06 08:16 190 18.3
2019-Dec-06 08:01 229 18.3
2019-Dec-06 07:48 175 18.3
2019-Dec-06 07:31 230 18.3
2019-Dec-06 07:16 242 17.8
2019-Dec-06 07:01 225 17.2
2019-Dec-06 06:46 164 16.7
2019-Dec-06 06:31 164 16.7
2019-Dec-06 06:16 164 16.7
2019-Dec-06 06:00 164 16.7
2019-Dec-06 05:45 164 17.2
2019-Dec-06 05:31 164 17.2
2019-Dec-06 05:16 164 17.2
2019-Dec-06 05:01 164 17.2
2019-Dec-06 04:46 165 17.2
2019-Dec-06 04:31 177 17.2
2019-Dec-06 04:16 152 17.2
2019-Dec-06 04:00 159 17.2
2019-Dec-06 03:46 161 17.2
2019-Dec-06 03:30 176 17.2
2019-Dec-06 03:15 159 17.8
2019-Dec-06 03:00 180 17.8
2019-Dec-06 02:46 173 17.8
2019-Dec-06 02:30 146 17.8
2019-Dec-06 02:15 149 17.8
2019-Dec-06 02:00 149 17.8
2019-Dec-06 01:45 149 17.8
2019-Dec-06 01:30 153 17.8
2019-Dec-06 01:16 157 17.8
2019-Dec-06 01:00 148 17.8
2019-Dec-06 00:45 157 17.8
2019-Dec-06 00:31 154 0 gusting 4 18.3
2019-Dec-06 00:15 145 18.3
2019-Dec-06 00:01 158 18.3
2019-Dec-05 23:46 150 18.3
2019-Dec-05 23:30 152 18.9
2019-Dec-05 23:15 144 18.9
2019-Dec-05 23:00 188 19.4
2019-Dec-05 22:46 145 20.0
2019-Dec-05 22:30 138 1 gusting 7 20.0
2019-Dec-05 22:15 158 2 gusting 7 20.6
2019-Dec-05 22:00 152 1 gusting 9 20.6
2019-Dec-05 21:45 139 3 gusting 7 20.6
2019-Dec-05 21:30 148 3 gusting 8 21.1
2019-Dec-05 21:15 158 1 gusting 9 21.1
2019-Dec-05 21:00 136 4 gusting 7 20.6
2019-Dec-05 20:45 146 1 gusting 5 21.1
2019-Dec-05 20:30 163 2 gusting 7 21.1
2019-Dec-05 20:15 135 1 gusting 9 21.1
2019-Dec-05 20:00 150 2 gusting 9 21.7
2019-Dec-05 19:45 165 4 gusting 9 21.1
2019-Dec-05 19:30 105 3 gusting 9 21.1
2019-Dec-05 19:16 126 6 gusting 13 21.7
2019-Dec-05 19:01 146 5 gusting 12 21.1
2019-Dec-05 18:46 126 5 gusting 10 21.7
2019-Dec-05 18:32 131 4 gusting 10 21.1
2019-Dec-05 18:17 152 4 gusting 9 21.1
2019-Dec-05 18:01 140 5 gusting 10 21.1
2019-Dec-05 17:46 136 4 gusting 9 21.1
2019-Dec-05 17:31 116 4 gusting 11 20.6
2019-Dec-05 17:16 143 6 gusting 9 20.6
2019-Dec-05 17:01 170 3 gusting 10 20.0
2019-Dec-05 16:46 165 4 gusting 11 20.0
2019-Dec-05 16:31 113 4 gusting 9 19.4
2019-Dec-05 16:15 090 4 gusting 7
2019-Dec-05 16:01 111 2 gusting 8
2019-Dec-05 15:45 084 4 gusting 7
2019-Dec-05 15:30 142 3 gusting 8
2019-Dec-05 15:15 121
2019-Dec-05 15:00 125 0 gusting 6
2019-Dec-05 14:45 105
2019-Dec-05 14:30 142
2019-Dec-05 14:15 159
2019-Dec-05 14:02 150